COSMOS 2251 DEB, 34792

Orbit data source: Space-Track

COSMOS 2251 DEB, 34792 is space debris in LEO originally from a launch on Wed, 16 Jun 1993 UTC launched from the Plesetsk Missile And Space Complex (PKMTR). The debris from Iridium 33, an American commercial communications satellite, has been tracked extensively since its accidental collision with the defunct Russian satellite Cosmos 2251 in 2009. This event, occurring at high speed in low Earth orbit (LEO), generated thousands of pieces of space debris, significantly increasing the risk of further collisions. The Iridium 33 debris cloud has impacted space traffic management and orbital debris mitigation strategies, making it a subject of ongoing study in space situational awareness.

Loading next visibility...
Identifier
34792, 1993-036AAV
Orbit
LEO
Country
Flag of CISCIS
Related business
Manufacturer
Unknown
Mission
Spacecraft
Bus & Motor
Unknown
Mass
Unknown
Launch date (UTC)
1993-06-16 (33 years ago)
Launch vehicle
Unknown
Launch site
Plesetsk Missile And Space Complex (PKMTR)
Object type
Payload
Rocket body
Debris
Shape & HBR
Unknown shape, 0.1 m
Radar Cross Section
Medium (>0.1 m² and <1 m²)

Expand to show TLE details & history
Last TLE update: 10 hours ago

TLE from 10 hours ago
0 COSMOS 2251 DEB
1 34792U 93036AAV 26178.20353958  .00003527  00000-0  78085-3 0  9993
2 34792  74.0162 156.2862 0013059 211.9747 163.2124 14.57522033905113
Epoch: 2026-06-27T04:53Z
TLE epoch observation values (Epoch: 2026-06-27T04:53:05.819Z)
Latitude
14.60662°
Longitude
171.94883°
Altitude
711.955 km
Speed
7.496 km/s
True Right ascension
10h 42m 10s
True Declination
14° 31' 21"
Sunlit
Object was in daylight at epoch
Visualization orbit readout
Latitude
Unknown
Longitude
Unknown
Altitude
Unknown
Speed
Unknown
Apparent Right ascension
Unknown
Apparent Declination
Unknown
Sunlit
N/A
Visualization observer readout
Local Sidereal Time
02:44:37
Azimuth
Unknown
Elevation
Unknown
Doppler factor
Unknown
Orbital elements
Apogee altitude
708.03 km
Perigee altitude
689.547 km
Semi-major axis
7,076.925 km
Eccentricity
0.00131
Inclination
74.0162°
RAAN
156.2862°
Arg. of periapsis
211.9747°
True anomaly
163.25555°
Mean anomaly
163.2124°
Eccentric anomaly
163.23398°
Mean motion
3.64566 °/min
Orbital period
98.75 mins
BSTAR
0.00078085
Loading maneuver chart data...
Computing Atmospheric mass density...

Documentation

Showing up to 5 results
|